Location: ??????????
(54.8537°N, 38.8755°E)
Time: 17:12:30
(UTC+00:00)

S-56A Canister/Altair - Pass Details

Date: 18 September 2024
Orbit: 636 x 2487 km, 38.9° (Epoch: 09 October)

Event Time Altitude Azimuth Distance (km) Brightness Sun altitude
Rises 17:54:25 0° 246° (WSW) 3,476 11.3 -20.0°
Reaches altitude 10° 17:57:13 10° 231° (SW) 2,752 10.5 -20.3°
Maximum altitude 18:02:13 22° 182° (S) 2,366 9.7 -20.9°
Enters shadow 18:03:30 22° 169° (S) 2,510 9.7 -21.0°
